This is the latest recevied weather packets stored in our database for station/object K9RJT. If no packets are shown the sender has not sent any weather packets the latest 10 day(s).
| Time | Temp. | Humidity | Pressure | Rain* | Wind** | Luminosity | Snow |
|---|---|---|---|---|---|---|---|
| 1777339587 | 15.56° C | 34% | 1011 hPa | 0 mm | - | 65 W/m² | - |
| 1777339283 | 15° C | 34% | 1010.9 hPa | 0 mm | - | 75 W/m² | - |
| 1777338982 | 15° C | 35% | 1010.8 hPa | 0 mm | - | 72 W/m² | - |
| 1777338678 | 15° C | 35% | 1010.9 hPa | 0 mm | - | 86 W/m² | - |
| 1777338376 | 15° C | 35% | 1010.8 hPa | 0 mm | - | 87 W/m² | - |
| 1777338072 | 15° C | 35% | 1010.6 hPa | 0 mm | - | 102 W/m² | - |
| 1777337769 | 15° C | 34% | 1010.5 hPa | 0 mm | - | 98 W/m² | - |
| 1777337466 | 15° C | 33% | 1010.5 hPa | 0 mm | - | 83 W/m² | - |
| 1777337162 | 15° C | 33% | 1010.4 hPa | 0 mm | - | 69 W/m² | - |
| 1777336860 | 15° C | 32% | 1010.4 hPa | 0 mm | - | 69 W/m² | - |
| 1777336559 | 15.56° C | 31% | 1010.4 hPa | 0 mm | - | 74 W/m² | - |
| 1777336257 | 15.56° C | 31% | 1010.2 hPa | 0 mm | - | 81 W/m² | - |
| 1777335954 | 16.11° C | 31% | 1010.2 hPa | 0 mm | - | 202 W/m² | - |
| 1777335650 | 16.11° C | 31% | 1010.3 hPa | 0 mm | - | 214 W/m² | - |
| 1777335348 | 16.11° C | 30% | 1010.3 hPa | 0 mm | - | 240 W/m² | - |
| 1777335045 | 16.11° C | 30% | 1010.3 hPa | 0 mm | - | 252 W/m² | - |
| 1777334743 | 16.11° C | 30% | 1010.3 hPa | 0 mm | - | 287 W/m² | - |
| 1777334440 | 16.67° C | 30% | 1010.3 hPa | 0 mm | - | 147 W/m² | - |
| 1777334137 | 16.67° C | 30% | 1010.3 hPa | 0 mm | - | 333 W/m² | - |
| 1777333836 | 16.11° C | 30% | 1010.1 hPa | 0 mm | - | 133 W/m² | - |
| 1777333533 | 15.56° C | 31% | 1010 hPa | 0 mm | - | 353 W/m² | - |
| 1777333229 | 15.56° C | 30% | 1009.9 hPa | 0 mm | - | 366 W/m² | - |
| 1777332928 | 15.56° C | 30% | 1010.2 hPa | 0 mm | - | 120 W/m² | - |
| 1777332626 | 15.56° C | 31% | 1010 hPa | 0 mm | - | 111 W/m² | - |
| 1777332322 | 16.11° C | 31% | 1010.2 hPa | 0 mm | - | 127 W/m² | - |
* Rain latest hour (hover to see other rain measurements)
** Current wind speed in m/s (hover to see current wind gust speed)